View from above orbital plane
|
View from above satellite
|
Ground track
|
The orbit data is extracted from the following two-line orbital elements,
1 32958U 08026A 21058.88342710 -.00000003 00000-0 18480-4 0 9991
2 32958 98.4378 37.7660 0008037 323.2015 36.8609 14.18648460660939
Epoch (UTC): | 27 February 2021 21:12:08 |
Eccentricity: | 0.0008037 |
inclination: | 98.4378° |
perigee height: | 824 km |
apogee height: | 836 km |
right ascension of ascending node: | 37.7660° |
argument of perigee: | 323.2015° |
revolutions per day: | 14.18648460 |
mean anomaly at epoch: | 36.8609° |
orbit number at epoch: | 66093 |
The dashed part of the orbit path shows where the satellite is in the earth's shadow,
|
|